Weather in Khromtsovo

Russia / Ivanovo Oblast     57°13′14″N   40°58′12″E
temp.,
°C
wind,
m/s
gust,
m/s
humid.,
%
clouds,
%
prec.,
mm/h
press.,
hPa
HPBL,
m
29 november, mon
mon2900:00−1sw3797100 0.0 1010173
03:00−1ssw2496100 0.0 1011108
06:000sse2496100 0.2 1010141
09:000se3793100 0.4 1010246
12:00+1ese3993100 0.1 1008282
15:00+2ese4996100 0.1 1005294
18:00+2e41098100 0.1 1002298
21:00+2ese51298100 0.1 998457
30 november, tue
tue3000:00+2e61298100 0.1 994444
03:00+3e71498100 0.6 987437
06:00+4ese81896100 4.6 978749
09:00+8se81794100 9.0 9721026
12:00+6ssw111886100 0.9 9731275
15:00+4ssw111867100 0.9 9741439
18:00+1s101783100 0.2 9751437
21:00−1ssw81793100 1.4 9741491
1 december, wed
wed100:00−2ssw101789100 1.0 9761094
03:00−3sw91585100 1.2 9791036
06:00−3sw8138797 0.3 982997
09:00−4sw61091100 0.5 985881
12:00−4wsw61090100 0.9 986842
15:00−4wsw5993100 1.6 987820
18:00−5wsw5993100 1.1 989823
21:00−5w5983100 1.3 990870
2 december, thu
thu200:00−6w5984100 0.1 992771
03:00−8wsw51188100 0.1 994595
06:00−8wsw51089100 0.0 995552
09:00−8wsw5109095 0.1 997460
12:00−6sw4882100 0.0 998435
15:00−5ssw41087100 0.1 998503
18:00−5s41094100 0.1 997531
21:00−4s4109478 0.4 996470
3 december, fri
fri300:00−4sse3796100 0.2 996274
03:00−2s31297100 1.1 995467
06:00+1sw51296100 0.3 996676
09:00+1wsw6139693 0.5 998752
12:00+1wsw6118698 0.1 1001857
15:000sw51085100 0.1 1004526
18:00−2ssw2694100 0.0 1006128
21:00−1sse2595100 0.0 1006148